Wind_Speed
23 19 17 16 15 16 16 14 14 11 11 11 7 12 13 12 10 8 7 8 9 10 12 12 13 14 14 14 12 10 9 9 7 6 7 7 7 7 7 7 8 8 6 6 7 10 13 16 18
26 25 23 21 18 16 17 18 15 15 12 11 11 10 13 14 12 11 10 9 10 10 11 12 12 12 12 11 10 8 8 7 8 7 6 8 8 8 9 9 8 8 9 11 14 16 17 14 12
27 26 26 24 17 19 20 21 21 17 15 14 13 13 13 15 15 14 13 12 11 11 11 12 12 11 10 9 8 7 7 8 8 9 9 9 9 9 9 11 12 14 15 16 16 9 9 10 11
31 32 31 28 22 21 24 23 24 20 19 17 17 14 15 14 14 16 16 15 15 13 12 12 11 11 9 9 9 9 9 11 12 12 12 13 13 14 15 17 18 18 17 10 8 9 10 10 10
33 34 35 32 27 24 24 25 24 24 21 20 18 18 15 15 15 16 17 17 17 17 15 14 13 13 13 12 13 12 12 13 13 14 14 14 14 14 13 12 10 8 7 7 8 8 9 10 10
32 34 35 33 29 28 29 29 28 26 25 24 20 20 18 18 17 17 16 16 17 19 19 17 17 17 15 14 12 12 12 13 12 13 13 12 10 9 8 7 7 8 9 8 8 9 11 12 12
34 34 35 34 32 33 29 33 32 29 28 28 26 23 20 20 20 19 17 16 16 17 20 19 18 17 16 14 12 12 11 12 13 13 11 11 11 11 9 9 9 9 9 10 10 11 12 11 11
28 34 34 33 33 33 33 33 34 32 31 30 30 27 26 22 23 23 19 18 18 17 17 20 20 19 16 15 13 12 11 10 11 11 12 13 12 12 11 11 10 11 11 10 9 8 9 10 12
35 35 33 29 27 28 37 35 37 36 35 32 31 30 27 27 25 24 24 22 21 20 20 20 21 20 18 17 15 13 12 11 11 11 11 13 14 13 13 12 12 11 9 7 8 10 13 14 16
31 34 31 29 31 29 34 35 37 37 37 34 32 31 32 30 30 28 27 28 25 25 23 23 23 22 21 20 18 16 14 13 13 13 13 14 15 14 14 12 10 10 11 11 12 14 16 18 20
31 31 29 29 30 32 37 36 39 37 39 36 34 36 35 34 32 31 32 30 29 29 27 25 25 25 24 23 21 20 18 17 16 16 16 16 16 15 14 14 14 14 15 16 17 18 20 22 24
38 36 34 31 33 32 36 38 42 38 39 38 37 39 35 34 32 35 34 32 31 29 31 29 28 27 27 26 25 24 23 22 20 20 19 19 19 19 18 18 18 18 18 20 22 23 24 27 29
42 41 40 39 37 34 37 37 40 42 42 43 42 44 41 37 35 35 34 33 30 28 30 31 31 29 29 30 28 27 27 26 24 24 23 22 22 22 23 23 22 22 23 25 27 27 29 31 32
42 43 42 40 39 39 39 38 38 38 43 45 42 42 42 44 38 37 35 34 33 34 31 31 31 31 31 32 31 30 29 28 28 27 28 27 26 26 26 26 26 26 28 29 32 32 33 34 35
46 46 45 45 45 45 46 42 39 41 42 44 45 42 42 43 43 40 38 38 37 37 37 34 33 32 33 34 34 33 32 31 31 31 31 31 30 29 29 30 30 31 32 33 35 36 37 37 39
50 51 51 50 50 50 52 40 45 47 44 43 45 45 46 45 45 44 42 40 39 39 38 35 35 35 35 35 35 34 34 35 34 33 33 33 34 33 33 33 33 34 35 37 38 39 40 41 42
52 53 54 54 53 55 54 47 50 52 50 45 46 47 47 46 47 49 47 45 41 39 40 36 35 35 36 35 35 34 35 35 36 34 33 34 35 35 35 35 36 37 38 40 41 42 42 44 46
55 56 58 59 59 59 58 53 56 54 53 50 48 47 49 48 48 49 50 48 50 49 44 39 36 35 36 35 35 34 37 38 37 35 35 34 35 35 37 37 39 40 40 42 43 44 46 48 50
57 59 60 59 61 63 62 60 59 56 55 52 51 51 53 49 51 50 53 53 56 51 51 44 41 37 35 36 35 38 38 38 38 38 37 36 37 37 38 40 41 42 43 45 45 47 50 52 52
53 56 59 61 62 64 65 63 62 60 56 57 54 53 54 54 54 52 55 55 56 57 53 51 45 42 36 35 36 39 39 41 40 39 39 39 39 40 41 41 42 45 46 47 48 50 52 54 54
54 57 59 61 64 64 68 67 65 62 63 61 57 55 56 55 56 56 56 58 61 58 51 52 50 45 42 41 39 38 40 40 40 41 42 42 43 43 43 44 45 46 48 50 52 53 55 58 60
53 56 59 61 63 63 67 68 66 68 64 62 60 60 58 59 58 58 58 58 57 55 57 50 50 47 47 44 42 42 42 43 42 45 44 44 44 45 45 46 48 49 51 54 54 58 60 55 45
49 53 55 58 62 65 64 70 65 67 65 66 64 63 62 62 61 58 60 61 59 53 51 57 51 52 52 49 43 43 42 42 45 46 45 45 45 46 46 48 50 54 56 57 59 48 40 42 50
44 44 49 53 55 60 58 63 62 65 63 67 67 64 64 63 62 61 59 62 61 57 52 52 53 53 52 48 47 42 41 43 46 47 46 46 45 47 49 53 56 58 59 54 43 43 48 46 45
32 33 36 40 42 50 48 56 53 61 62 66 65 66 66 62 62 61 60 61 62 59 56 52 54 56 52 51 50 43 41 46 46 45 46 48 49 51 54 57 55 53 52 49 58 56 48 42 41
13 11 14 23 24 36 32 49 47 50 54 59 63 63 65 65 61 63 59 62 62 60 58 55 50 56 56 53 52 49 45 47 49 51 55 54 55 56 49 47 49 48 47 48 48 44 41 42 44
12 11 11 21 19 14 11 17 24 29 37 40 45 56 64 63 58 63 59 59 58 59 58 55 49 51 50 50 51 51 50 54 56 56 55 56 52 48 51 42 45 47 49 43 40 40 45 47 47
7 10 12 12 17 23 23 22 18 24 22 23 34 30 45 58 65 57 58 58 57 60 57 53 59 51 50 49 48 52 50 48 54 51 49 50 52 53 52 53 49 44 41 39 41 47 48 46 48
4 7 15 12 20 25 29 23 25 23 32 27 25 30 34 38 54 57 57 59 58 55 57 57 52 49 53 52 49 47 48 48 41 51 48 47 50 41 48 46 39 35 35 41 45 45 47 47 50
9 13 14 16 13 13 25 26 22 18 24 37 35 31 36 37 47 50 60 57 59 60 59 51 52 54 51 58 52 53 49 51 59 53 45 48 41 39 39 33 32 36 42 43 45 47 49 50 52
Wind_Direction
241 237 242 248 242 237 230 228 222 235 225 230 251 247 244 238 237 230 219 200 188 185 178 180 180 185 192 199 203 208 209 215 212 219 221 218 213 204 194 193 193 199 205 231 257 274 282 284 286
242 242 244 251 249 243 226 229 225 227 227 227 225 232 247 242 238 234 222 213 204 197 196 195 197 200 205 208 214 219 219 216 212 201 197 202 202 202 205 210 215 230 251 268 283 289 291 290 288
239 242 242 245 246 246 229 224 229 220 223 226 227 231 244 243 243 239 232 221 210 208 211 206 206 212 216 215 215 207 204 214 212 212 215 217 221 222 230 239 248 260 271 281 289 292 297 301 301
237 240 242 245 242 237 232 230 228 222 224 226 229 230 235 242 244 243 236 232 225 216 213 219 220 221 224 234 242 244 237 239 239 235 241 240 241 243 247 252 257 266 278 278 285 295 306 314 316
239 240 243 243 241 237 235 235 230 227 224 224 232 233 232 234 237 244 243 233 236 230 225 225 231 236 238 243 251 252 253 248 239 247 250 250 252 257 261 267 269 271 272 283 290 298 303 306 311
244 242 243 247 247 240 233 233 233 229 225 226 221 232 236 240 237 237 243 241 237 238 231 231 234 239 239 245 250 251 247 247 241 246 253 250 249 254 260 262 265 273 278 284 291 297 298 302 307
249 247 247 245 243 244 242 240 234 232 228 228 224 222 230 241 246 239 237 245 243 245 237 233 238 242 243 241 241 241 245 250 250 249 247 247 251 257 252 260 261 267 274 279 286 292 296 304 313
257 252 250 248 247 247 250 249 244 238 235 231 231 222 222 231 240 245 240 240 248 248 251 240 238 242 243 242 238 238 238 244 246 242 245 249 250 247 251 254 259 266 270 278 286 297 305 308 302
257 258 257 261 257 255 250 246 246 242 240 240 235 235 226 227 234 238 243 244 241 244 249 247 240 237 235 235 238 242 244 247 252 250 245 244 249 254 258 259 262 266 270 278 286 292 294 294 295
260 261 264 261 253 250 251 247 244 241 241 239 240 238 237 229 226 229 238 249 245 242 241 248 246 239 238 234 235 239 243 250 257 258 257 254 256 260 263 265 268 271 274 278 284 285 290 294 298
259 261 260 256 257 248 247 246 248 238 239 238 241 238 239 236 235 228 231 236 247 247 243 242 249 246 239 237 237 239 241 245 251 256 254 252 251 252 255 257 260 267 275 282 284 287 292 294 295
262 262 260 258 255 253 251 249 248 249 241 235 237 243 242 240 240 239 234 232 236 242 245 244 243 249 244 240 239 240 244 245 247 250 253 253 252 251 251 252 258 264 272 280 285 290 294 294 294
263 263 263 259 257 253 253 250 251 249 250 245 236 239 240 243 241 244 242 236 235 236 242 245 244 240 242 241 240 242 244 248 250 251 253 253 255 255 255 258 263 270 275 280 281 284 287 288 291
262 262 260 260 257 255 254 254 255 250 249 249 244 243 240 240 237 237 243 242 234 231 230 237 242 244 244 243 242 241 244 249 250 252 254 254 255 256 258 261 264 267 270 273 277 282 283 287 291
258 260 260 258 256 255 254 251 257 253 250 250 249 244 244 239 237 236 239 242 241 238 233 228 235 239 243 247 247 246 246 248 251 252 254 257 259 259 260 262 264 267 270 272 276 281 284 289 291
257 256 255 256 255 255 255 250 253 253 249 246 248 246 246 240 234 236 234 240 243 242 235 232 234 238 242 246 250 250 251 252 253 256 257 259 260 261 263 264 267 268 270 273 277 281 286 290 291
256 255 255 254 255 254 252 252 250 251 252 247 244 246 245 242 238 233 234 236 235 236 233 233 237 240 242 244 248 252 255 257 257 261 262 263 263 265 266 268 269 270 272 274 278 282 285 286 287
259 256 254 252 252 251 250 248 250 250 252 250 246 242 245 242 240 236 236 233 237 237 239 236 237 240 246 246 249 249 248 253 257 258 260 261 263 265 267 269 270 271 272 274 277 279 282 285 288
262 259 255 254 253 252 252 248 249 247 249 250 251 244 245 242 242 238 237 233 237 241 241 243 241 243 245 250 250 249 250 253 255 257 258 262 264 267 268 269 270 272 273 274 278 282 284 285 288
264 262 259 255 254 252 250 248 247 247 246 247 246 248 247 247 240 240 237 234 235 238 243 241 242 244 244 245 247 249 251 253 257 258 261 264 267 268 270 272 273 272 274 278 280 281 284 286 289
266 263 259 257 255 253 251 247 247 248 247 247 244 244 246 247 245 241 236 237 238 238 241 245 241 244 245 243 245 249 251 254 257 258 258 261 264 269 272 273 274 275 277 277 279 283 285 286 290
263 260 258 256 255 254 251 250 246 245 247 246 245 243 242 244 244 243 239 238 241 241 237 242 242 242 242 244 245 246 248 251 254 257 259 263 267 270 273 274 274 276 277 279 282 284 286 289 291
264 260 258 257 255 252 253 253 247 245 246 245 243 242 241 241 241 240 239 238 241 241 241 240 243 242 244 244 242 247 250 255 257 260 262 266 268 270 271 272 275 276 277 282 284 286 286 282 297
266 266 262 259 257 254 253 254 244 248 246 245 244 242 240 239 238 236 236 237 239 239 239 239 237 237 244 238 245 247 252 256 259 262 264 266 269 271 272 273 276 279 281 286 275 278 286 288 288
280 287 289 276 273 262 265 260 246 249 247 244 241 241 240 237 236 237 234 235 238 238 239 241 242 242 236 241 245 248 255 254 258 261 263 264 267 270 272 277 286 286 280 275 271 278 286 288 284
294 299 312 311 312 280 273 263 254 255 251 246 243 241 242 240 234 233 234 232 235 235 237 238 243 238 241 243 250 253 254 257 258 256 258 265 262 265 270 281 268 272 273 275 277 284 283 284 290
261 271 299 302 304 305 312 303 263 267 245 246 243 240 241 240 237 235 228 229 233 234 234 236 236 233 242 245 248 250 251 258 261 260 267 264 270 266 263 269 270 273 272 276 282 281 286 293 305
279 268 314 311 308 288 295 302 285 255 240 238 233 228 231 237 236 229 227 225 225 230 232 234 236 232 240 247 254 258 262 264 261 263 262 262 268 272 264 268 280 268 273 279 280 283 292 301 296
277 321 311 291 293 294 310 298 291 281 243 241 242 237 236 234 225 218 223 221 220 221 226 229 236 236 239 242 255 257 255 261 247 264 260 263 262 265 264 267 266 269 277 278 286 299 296 295 298
285 299 336 320 326 315 324 292 298 278 255 253 254 245 235 236 220 208 215 214 216 219 221 234 233 240 243 239 240 238 248 240 251 260 269 261 265 265 262 273 276 275 281 298 297 293 297 298 303
Height
5820 5821 5823 5824 5829 5828 5830 5831 5830 5833 5834 5835 5836 5838 5839 5839 5840 5842 5840 5839 5839 5839 5839 5840 5840 5841 5842 5842 5843 5844 5844 5845 5845 5846 5846 5846 5847 5847 5847 5848 5848 5848 5848 5848 5848 5848 5847 5846 5845
5816 5818 5820 5821 5825 5825 5827 5828 5829 5830 5832 5832 5833 5835 5837 5838 5838 5839 5839 5840 5839 5840 5840 5841 5841 5842 5842 5843 5843 5843 5844 5844 5845 5845 5845 5846 5846 5847 5847 5847 5848 5848 5847 5847 5846 5845 5844 5843 5842
5812 5814 5816 5817 5820 5822 5824 5824 5826 5827 5828 5830 5831 5832 5834 5836 5836 5837 5838 5838 5839 5839 5840 5841 5841 5842 5842 5843 5843 5844 5844 5844 5844 5845 5845 5845 5845 5846 5846 5846 5846 5846 5845 5844 5843 5842 5842 5841 5840
5808 5810 5811 5812 5816 5819 5819 5820 5821 5824 5825 5827 5828 5830 5831 5833 5834 5835 5836 5837 5838 5838 5839 5840 5840 5841 5842 5843 5843 5843 5844 5844 5844 5844 5844 5844 5844 5844 5844 5844 5844 5844 5843 5842 5842 5841 5840 5839 5838
5804 5805 5806 5809 5812 5814 5815 5816 5818 5820 5822 5822 5825 5826 5828 5830 5831 5833 5834 5835 5837 5837 5838 5838 5839 5840 5840 5841 5842 5842 5842 5842 5843 5843 5842 5843 5843 5843 5843 5843 5842 5842 5842 5841 5841 5840 5838 5837 5837
5800 5801 5801 5805 5808 5809 5810 5811 5813 5816 5817 5818 5820 5822 5825 5827 5828 5830 5831 5833 5834 5835 5836 5837 5838 5838 5838 5838 5839 5840 5840 5841 5841 5841 5841 5841 5841 5841 5841 5842 5841 5841 5840 5840 5839 5838 5836 5836 5835
5796 5797 5798 5800 5803 5804 5807 5806 5809 5811 5812 5814 5816 5818 5822 5822 5825 5826 5828 5830 5831 5832 5833 5834 5835 5836 5836 5836 5836 5837 5838 5839 5839 5839 5839 5840 5840 5840 5840 5840 5840 5839 5838 5837 5836 5835 5834 5834 5833
5792 5790 5792 5795 5798 5802 5802 5804 5806 5807 5809 5808 5812 5813 5815 5818 5820 5822 5824 5826 5828 5829 5830 5831 5831 5833 5833 5834 5834 5834 5835 5836 5837 5837 5838 5838 5838 5838 5838 5838 5837 5836 5836 5835 5834 5833 5833 5832 5831
5786 5784 5788 5793 5794 5797 5794 5797 5799 5803 5804 5805 5808 5810 5811 5811 5814 5817 5820 5822 5823 5825 5827 5828 5828 5829 5830 5831 5832 5833 5833 5834 5834 5835 5835 5835 5836 5836 5836 5835 5835 5834 5834 5834 5833 5832 5831 5830 5829
5779 5779 5784 5787 5787 5789 5788 5789 5791 5795 5797 5801 5803 5805 5805 5806 5807 5810 5814 5817 5818 5820 5822 5823 5824 5826 5827 5829 5829 5830 5831 5832 5833 5833 5833 5834 5834 5834 5834 5834 5834 5833 5833 5832 5831 5830 5828 5827 5825
5775 5774 5778 5779 5780 5781 5781 5783 5783 5786 5788 5793 5798 5796 5799 5801 5803 5803 5806 5809 5813 5815 5818 5819 5820 5822 5824 5825 5827 5827 5828 5829 5830 5830 5830 5830 5831 5831 5832 5832 5831 5831 5830 5829 5828 5826 5825 5823 5821
5766 5767 5771 5773 5772 5772 5774 5777 5774 5779 5781 5785 5790 5789 5793 5796 5798 5799 5800 5802 5805 5809 5812 5814 5815 5818 5820 5821 5823 5824 5825 5826 5826 5827 5827 5828 5828 5829 5828 5828 5828 5827 5826 5825 5824 5822 5821 5818 5816
5758 5759 5761 5764 5766 5765 5765 5767 5769 5772 5774 5777 5781 5782 5787 5790 5792 5795 5796 5797 5800 5803 5806 5809 5811 5812 5814 5816 5818 5820 5821 5822 5823 5823 5823 5824 5825 5825 5825 5824 5824 5824 5822 5820 5818 5818 5815 5813 5811
5748 5749 5751 5754 5756 5757 5757 5759 5760 5765 5766 5767 5772 5775 5779 5783 5785 5787 5790 5793 5794 5794 5797 5801 5804 5807 5809 5811 5813 5814 5816 5817 5818 5819 5819 5819 5820 5820 5820 5820 5819 5818 5817 5815 5812 5812 5811 5809 5806
5738 5739 5740 5743 5744 5745 5744 5750 5752 5756 5759 5761 5765 5768 5771 5774 5778 5783 5784 5786 5788 5790 5790 5792 5797 5800 5803 5805 5807 5809 5810 5811 5812 5813 5814 5814 5815 5815 5815 5814 5813 5813 5811 5809 5807 5806 5804 5802 5800
5727 5728 5729 5731 5732 5734 5733 5743 5743 5741 5748 5752 5754 5759 5762 5766 5770 5773 5776 5779 5782 5784 5786 5787 5789 5793 5796 5799 5802 5804 5806 5805 5806 5807 5808 5809 5809 5809 5809 5808 5808 5807 5805 5803 5801 5799 5797 5796 5793
5714 5716 5717 5718 5719 5719 5723 5732 5730 5731 5736 5742 5744 5748 5751 5756 5760 5764 5768 5771 5774 5776 5779 5781 5783 5788 5789 5791 5795 5798 5800 5800 5800 5801 5802 5803 5803 5804 5803 5803 5802 5800 5799 5797 5795 5793 5791 5788 5785
5700 5700 5702 5703 5705 5704 5709 5718 5714 5721 5723 5731 5735 5738 5740 5745 5749 5754 5758 5763 5764 5767 5771 5774 5778 5780 5784 5786 5788 5792 5792 5793 5794 5795 5795 5796 5796 5797 5797 5796 5795 5793 5792 5789 5788 5786 5783 5781 5778
5683 5684 5686 5688 5690 5692 5696 5701 5702 5708 5712 5719 5723 5727 5730 5735 5739 5743 5748 5752 5755 5759 5764 5767 5770 5773 5777 5781 5784 5784 5785 5786 5787 5788 5788 5788 5789 5789 5789 5788 5787 5786 5784 5782 5780 5778 5776 5772 5769
5667 5667 5669 5672 5673 5674 5678 5686 5688 5693 5701 5705 5712 5717 5720 5723 5728 5733 5738 5742 5745 5750 5754 5759 5763 5766 5770 5773 5775 5775 5778 5779 5780 5782 5782 5782 5781 5781 5781 5780 5779 5777 5776 5774 5772 5769 5766 5763 5759
5651 5649 5652 5655 5654 5660 5660 5668 5674 5682 5682 5691 5700 5706 5708 5712 5716 5720 5727 5731 5736 5741 5746 5749 5754 5758 5762 5764 5766 5769 5770 5772 5773 5774 5773 5773 5773 5773 5773 5772 5771 5769 5767 5765 5762 5760 5757 5753 5749
5636 5632 5634 5635 5638 5645 5643 5650 5659 5660 5670 5675 5683 5689 5695 5698 5703 5711 5716 5719 5723 5730 5736 5739 5744 5750 5753 5757 5759 5760 5761 5763 5765 5765 5766 5766 5766 5765 5765 5763 5761 5759 5757 5755 5753 5749 5746 5742 5738
5619 5617 5618 5618 5620 5624 5635 5625 5648 5646 5656 5659 5666 5671 5678 5684 5689 5697 5704 5711 5714 5720 5726 5731 5734 5739 5743 5748 5750 5751 5753 5757 5757 5758 5759 5759 5758 5757 5755 5753 5751 5748 5746 5744 5741 5738 5734 5732 5729
5604 5602 5602 5603 5603 5611 5613 5607 5632 5631 5639 5641 5648 5653 5662 5669 5676 5683 5692 5698 5704 5709 5715 5720 5727 5730 5736 5738 5741 5743 5747 5748 5749 5750 5750 5750 5748 5747 5746 5743 5741 5738 5736 5734 5731 5728 5726 5721 5717
5597 5596 5593 5595 5592 5597 5595 5589 5623 5614 5617 5621 5627 5635 5643 5653 5661 5669 5678 5684 5690 5698 5705 5712 5719 5723 5727 5730 5733 5735 5737 5739 5740 5741 5741 5740 5738 5737 5735 5733 5730 5728 5728 5725 5722 5719 5715 5710 5706
5596 5594 5592 5586 5586 5582 5584 5581 5602 5594 5598 5602 5610 5618 5625 5636 5647 5656 5666 5672 5679 5687 5696 5703 5708 5715 5719 5722 5725 5726 5728 5728 5730 5730 5729 5729 5726 5726 5722 5722 5722 5721 5718 5714 5711 5707 5704 5700 5695
5592 5592 5591 5586 5584 5578 5582 5583 5585 5584 5587 5589 5594 5602 5610 5619 5629 5641 5649 5660 5668 5678 5687 5694 5700 5704 5710 5713 5716 5717 5718 5719 5719 5719 5719 5717 5716 5717 5718 5714 5712 5709 5707 5704 5700 5697 5693 5688 5684
5588 5591 5590 5587 5584 5579 5579 5578 5577 5578 5582 5584 5586 5590 5596 5602 5614 5625 5637 5647 5656 5667 5676 5685 5690 5694 5700 5704 5707 5708 5710 5710 5711 5710 5708 5710 5710 5709 5706 5704 5702 5698 5696 5693 5690 5685 5682 5677 5672
5588 5588 5588 5586 5585 5580 5575 5575 5574 5573 5573 5575 5579 5582 5586 5589 5597 5612 5624 5635 5645 5656 5668 5676 5681 5686 5691 5695 5698 5700 5701 5701 5701 5703 5702 5702 5701 5698 5697 5695 5691 5688 5686 5682 5679 5676 5670 5664 5660
5586 5587 5585 5585 5582 5579 5574 5571 5568 5568 5567 5566 5570 5573 5575 5579 5588 5603 5612 5624 5635 5646 5657 5666 5674 5680 5683 5688 5688 5690 5692 5692 5694 5694 5693 5692 5690 5688 5688 5686 5683 5679 5677 5672 5668 5663 5658 5654 5650